{"data":{"norad_id":46033,"intl_designator":"2020-055G","name":"STARLINK-1556","alt_names":[],"object_type":"PAYLOAD","status":"ACTIVE","operator":null,"country":"US","launch_date":"2020-08-07","launch_site_code":"AFETR","launch_vehicle":null,"mission":null,"orbit_class":"UNKNOWN","rcs_meters":null,"size_class":null,"mass_kg":null,"dimensions":null,"purposes":["comms"],"wikipedia_slug":null,"has_3d_model":false,"image_url":null,"decayed_at":null,"tle_current":{"epoch":"2026-09-19T19:56:51.956160Z","epoch_age_seconds":76037,"freshness":"FRESH","line1":"1 46033U 20055G   26262.83115690 -.00003919  00000+0 -11453-3 0  9999","line2":"2 46033  53.1606 303.9216 0000898  66.7637 293.3459 15.31719124338602","mean_motion":15.31719124,"eccentricity":8.98e-5,"inclination_deg":53.1606,"raan_deg":303.9216,"arg_perigee_deg":66.7637,"mean_anomaly_deg":293.3459,"bstar":-0.00011453,"rev_number":33860,"period_min":94.012014176563,"perigee_km":470.06796413498,"apogee_km":471.29801220485,"semimajor_km":6848.8199881699,"source":"CELESTRAK","updated_at":"2026-09-20T09:00:38.460033Z"}}}